#timestamp,LO_Frequency,Temp,Hum 
1440090015.5,286078801.4,27.1,34.2 
1440090035.6,286078799.9,27.1,34.2 
1440090055.7,286078800.2,27.1,34.7 
1440090075.9,286078802.5,27.1,32.7 
1440090096.0,286078799.7,27.1,32.7 
1440090116.1,286078795.3,27.1,32.7 
1440090135.3,286078804.4,27.1,32.7 
1440090155.5,286078799.5,27.1,32.2 
1440090175.6,286078803.9,27.1,32.2 
1440090195.7,286078803.0,27.1,31.7 
1440090215.8,286078797.6,27.1,32.2 
1440090236.0,286078798.5,27.1,32.2 
1440090256.1,286078801.1,27.1,32.2 
1440090275.3,286078800.7,27.1,31.7 
1440090295.4,286078798.5,27.1,32.2 
1440090315.5,286078800.9,27.1,32.2 
1440090335.7,286078800.9,27.1,32.2 
1440090355.8,286078798.5,27.1,32.2 
1440090375.9,286078804.1,27.1,32.2 
1440090396.0,286078800.7,27.1,31.7 
1440090415.3,286078801.7,27.1,31.7 
1440090435.4,286078801.8,27.1,31.7 
1440090455.5,286078799.7,27.1,31.7 
1440090475.6,286078799.1,27.1,32.2 
1440090495.8,286078801.1,27.1,32.2 
1440090515.9,286078799.7,27.1,32.2 
1440090536.0,286078798.5,27.1,31.7 
1440090555.2,286078801.1,27.1,32.7 
1440090575.4,286078801.0,27.1,33.2 
1440090595.5,286078801.2,27.1,33.7 
1440090615.6,286078793.7,27.1,33.7 
1440090635.7,286078799.7,27.1,33.2 
1440090655.9,286078799.2,27.1,34.2 
1440090676.0,286078801.0,27.1,34.7 
1440090695.2,286078798.7,27.1,35.2 
1440090715.3,286078798.8,27.8,34.7 
1440090735.5,286078801.2,27.8,34.2 
1440090755.6,286078799.8,27.8,34.7 
1440090775.7,286078796.1,27.8,34.7 
1440090795.8,286078797.4,27.8,34.7 
1440090816.0,286078802.4,27.8,35.2 
1440090836.1,286078797.7,27.8,35.7 
1440090855.3,286078797.3,27.8,34.7 
1440090875.4,286078802.3,27.1,33.7 
1440090895.6,286078802.8,27.1,33.2 
1440090915.7,286078794.5,27.1,33.7 
1440090935.8,286078803.0,27.1,34.2 
1440090955.9,286078800.9,27.1,34.2 
1440090976.1,286078801.3,27.1,33.2 
1440090995.3,286078802.6,27.1,32.7 
1440091015.4,286078798.6,27.1,32.7 
1440091035.5,286078796.9,27.1,32.2 
1440091055.7,286078805.5,27.1,32.7 
1440091075.8,286078797.3,27.1,32.7 
1440091095.9,286078799.0,27.8,32.7 
1440091116.1,286078797.3,27.8,33.2 
1440091135.3,286078798.9,27.8,33.2 
1440091155.4,286078803.0,27.8,32.7 
1440091175.5,286078796.1,27.8,32.7 
1440091195.7,286078797.0,27.8,32.7 
1440091215.8,286078801.3,27.8,33.2 
1440091235.9,286078802.8,27.1,32.7 
1440091256.0,286078800.5,27.1,32.2 
1440091275.3,286078800.1,27.1,32.2 
1440091295.4,286078802.6,27.1,32.2 
1440091315.5,286078800.2,27.1,32.2 
1440091335.7,286078802.1,27.1,32.2 
1440091355.8,286078802.8,27.1,32.2 
1440091375.9,286078799.2,27.1,32.2 
1440091396.1,286078800.1,27.1,32.2 
1440091415.3,286078804.3,27.1,32.2 
1440091435.4,286078800.9,27.1,31.7 
1440091455.5,286078800.0,27.1,31.7 
1440091475.7,286078800.0,27.1,32.2 
1440091495.8,286078802.6,27.1,32.2 
1440091515.9,286078801.5,27.1,33.2 
1440091536.1,286078794.1,27.1,33.7 
1440091555.3,286078799.4,27.1,34.2 
1440091575.4,286078796.8,27.1,34.2 
1440091595.6,286078801.1,27.8,34.2 
1440091615.7,286078798.9,27.8,34.7 
1440091635.8,286078799.8,27.8,35.7 
1440091656.0,286078795.5,27.8,35.7 
1440091676.1,286078799.2,27.8,36.2 
1440091695.3,286078801.8,27.8,36.2 
1440091715.4,286078800.1,27.8,36.2 
1440091735.6,286078800.8,27.8,36.2 
1440091755.7,286078798.7,27.8,35.2 
1440091775.8,286078804.6,27.1,34.7 
1440091795.9,286078797.1,27.1,34.2 
1440091816.1,286078802.7,27.1,35.2 
1440091835.3,286078796.9,27.1,35.7 
1440091855.4,286078799.7,27.1,36.7 
1440091875.5,286078798.4,27.1,36.7 
1440091895.7,286078801.5,27.8,36.2 
1440091915.8,286078795.5,27.8,36.2 
1440091935.9,286078800.5,27.8,36.7 
1440091956.0,286078799.7,27.8,36.7 
1440091975.2,286078804.3,27.8,37.2 
1440091995.4,286078798.3,27.8,37.2 
1440092015.5,286078798.4,27.8,37.6 
1440092035.6,286078800.7,27.8,37.6 
1440092055.7,286078800.3,27.8,38.1 
1440092075.9,286078800.0,27.8,38.1 
1440092096.0,286078801.5,27.8,38.6 
1440092115.2,286078797.0,27.8,38.6 
1440092135.3,286078802.4,27.8,38.6 
1440092155.5,286078800.9,27.8,39.1 
1440092175.6,286078801.4,27.8,39.6 
1440092195.7,286078798.7,27.8,39.6 
1440092215.8,286078800.7,27.8,39.1 
1440092236.0,286078803.1,27.8,39.1 
1440092256.1,286078798.2,27.8,39.1 
1440092275.3,286078798.0,27.8,39.6 
1440092295.5,286078800.4,27.8,39.6 
1440092315.6,286078801.3,27.8,39.6 
1440092335.7,286078800.0,27.8,40.1 
1440092355.8,286078800.5,27.8,40.1 
1440092376.0,286078802.7,27.8,40.1 
1440092396.1,286078799.6,27.8,40.1 
1440092415.3,286078798.6,27.8,40.1 
1440092435.4,286078801.3,27.8,40.1 
1440092455.5,286078801.1,27.8,40.1 
1440092475.7,286078797.4,27.8,40.1 
1440092495.8,286078802.6,27.8,40.1 
1440092515.9,286078797.8,27.8,39.6 
1440092536.1,286078797.0,27.8,40.1 
1440092555.3,286078800.5,27.8,39.6 
1440092575.4,286078805.8,27.8,40.1 
1440092595.5,286078797.7,27.8,40.6 
1440092615.7,286078799.8,27.8,40.6 
1440092635.8,286078801.5,27.8,40.6 
1440092655.9,286078796.9,27.8,40.6 
1440092676.1,286078801.0,27.8,40.6 
1440092695.3,286078798.9,27.8,40.6 
1440092715.4,286078802.7,27.8,40.6 
1440092735.5,286078798.3,27.8,40.1 
1440092755.7,286078796.7,27.8,40.1 
1440092775.8,286078801.3,27.8,40.1 
1440092795.9,286078799.7,27.8,40.1 
1440092816.0,286078801.1,27.8,40.6 
1440092835.3,286078798.6,27.8,40.6 
1440092855.4,286078800.0,27.8,40.6 
1440092875.5,286078800.8,27.8,40.6 
1440092895.6,286078800.4,27.8,40.6 
1440092915.8,286078801.2,27.8,40.6 
1440092935.9,286078801.4,27.8,40.6 
1440092956.0,286078799.9,27.8,40.6 
1440092975.2,286078799.8,27.8,40.6 
1440092995.4,286078800.6,27.8,40.6 
1440093015.5,286078798.5,27.8,41.1 
1440093035.6,286078803.1,27.8,41.1 
1440093055.8,286078797.1,27.8,41.1 
1440093075.9,286078800.1,27.8,41.1 
1440093096.0,286078802.9,27.8,41.1 
1440093115.2,286078797.7,27.8,41.1 
1440093135.4,286078798.8,27.8,41.6 
1440093155.5,286078803.0,27.8,41.6 
1440093175.7,286078799.8,27.8,41.6 
1440093195.8,286078797.2,27.8,41.6 
1440093215.9,286078800.2,27.8,41.1 
1440093236.1,286078799.3,27.8,41.1 
1440093255.3,286078798.4,27.8,40.6 
1440093275.4,286078804.1,27.8,40.6 
1440093295.5,286078797.1,27.8,40.6 
1440093315.7,286078799.2,27.8,41.1 
1440093335.8,286078800.1,27.8,41.1 
1440093355.9,286078800.3,27.8,41.6 
1440093376.1,286078800.8,27.8,41.6 
1440093395.3,286078802.9,27.8,41.6 
1440093415.4,286078797.0,27.8,41.6 
1440093435.5,286078800.3,27.8,41.6 
1440093455.7,286078800.2,27.8,41.6 
1440093475.8,286078797.5,27.8,41.6 
1440093495.9,286078800.2,27.8,41.6 
1440093516.1,286078800.5,27.8,41.6 
1440093535.3,286078802.4,27.1,42.1 
1440093555.4,286078801.0,27.8,41.6 
1440093575.5,286078796.0,27.8,41.6 
1440093595.7,286078800.4,27.8,41.6 
